Soldotna, AK

3:36 AM AKDT on March 24, 2017 (GMT -0800)
Soldotna

Weather History for PASX - August, 2013

Change the Weather History Date:

Wednesday, August 7, 2013

  Actual Average Record
Temperature  
Mean Temperature 60 °F -  
Max Temperature 66 °F 62 °F 75 °F (1957)
Min Temperature 55 °F 48 °F 37 °F (1975)
Degree Days  
Heating Degree Days 4    
Growing Degree Days 10 (Base 50)    
Moisture  
Dew Point 48 °F    
Average Humidity 66    
Maximum Humidity 88    
Minimum Humidity 49    
Precipitation  
Precipitation 0.00 in - - ()
Sea Level Pressure  
Sea Level Pressure 29.76 in    
Wind  
Wind Speed 7 mph (ENE)    
Max Wind Speed 20 mph    
Max Gust Speed 23 mph    
Visibility 10 miles    
Events      
Averages and records for this station are not official NWS values.
T = Trace of Precipitation, MM = Missing Value Source: NWS Daily Summary

Daily Weather History Graph

Daily Weather History Graph

Search for Another Location

Airport or City:

Trip Planner

Search our weather history database for the weather conditions in past years. The results will help you decide how hot, cold, wet, or windy it might be!

Date:

Astronomy

Aug. 07, 2013 Rise Set
Actual Time 5:57 AM AKDT 10:20 PM AKDT
Civil Twilight 5:00 AM AKDT 11:17 PM AKDT
Nautical Twilight 3:18 AM AKDT 12:54 AM AKDT
Astronomical Twilight Sun does not rise Sun does not rise
Moon 7:31 AM AKDT (8/7) 9:48 PM AKDT (8/7)
Length of Visible Light 18h 17m
Length of Day
16h 22m
New Moon, 1% of the Moon is Illuminated
Aug 7
New Moon
Aug 14
First Quarter
Aug 20
Full
Aug 28
Last Quarter
Sep 5
New

Hourly Weather History & Observations

Time (AKDT) Temp. Dew Point Humidity Pressure Visibility Wind Dir Wind Speed Gust Speed Precip Events Conditions
12:16 AM 60.8 °F 46.4 °F 59% 29.83 in 10.0 mi NE 3.5 mph - N/A   Mostly Cloudy
12:36 AM 60.8 °F 46.4 °F 59% 29.83 in 10.0 mi ENE 6.9 mph - N/A   Partly Cloudy
12:56 AM 60.8 °F 46.4 °F 59% 29.83 in 10.0 mi NE 4.6 mph - N/A   Clear
1:16 AM 60.8 °F 46.4 °F 59% 29.83 in 10.0 mi NE 3.5 mph - N/A   Clear
1:36 AM 60.8 °F 46.4 °F 59% 29.82 in 10.0 mi Calm Calm - N/A   Partly Cloudy
1:56 AM 59.0 °F 46.4 °F 63% 29.82 in 10.0 mi ENE 4.6 mph - N/A   Partly Cloudy
2:16 AM 59.0 °F 46.4 °F 63% 29.82 in 10.0 mi East 5.8 mph - N/A   Partly Cloudy
2:36 AM 60.8 °F 48.2 °F 63% 29.82 in 10.0 mi East 8.1 mph - N/A   Partly Cloudy
2:56 AM 60.8 °F 46.4 °F 59% 29.81 in 10.0 mi East 11.5 mph - N/A   Partly Cloudy
3:16 AM 60.8 °F 46.4 °F 59% 29.81 in 10.0 mi East 10.4 mph - N/A   Partly Cloudy
3:36 AM 60.8 °F 46.4 °F 59% 29.80 in 10.0 mi East 9.2 mph - N/A   Mostly Cloudy
3:56 AM 60.8 °F 48.2 °F 63% 29.80 in 10.0 mi NE 5.8 mph - N/A   Scattered Clouds
4:16 AM 59.0 °F 46.4 °F 63% 29.80 in 10.0 mi East 4.6 mph - N/A   Clear
4:36 AM 59.0 °F 48.2 °F 67% 29.80 in 10.0 mi ENE 4.6 mph - N/A   Partly Cloudy
4:56 AM 57.2 °F 46.4 °F 67% 29.80 in 10.0 mi East 6.9 mph - N/A   Clear
5:16 AM 57.2 °F 46.4 °F 67% 29.79 in 10.0 mi East 5.8 mph - N/A   Clear
5:36 AM 57.2 °F 46.4 °F 67% 29.79 in 10.0 mi East 4.6 mph - N/A   Scattered Clouds
5:56 AM 57.2 °F 46.4 °F 67% 29.79 in 10.0 mi East 5.8 mph - N/A   Overcast
6:16 AM 57.2 °F 46.4 °F 67% 29.79 in 10.0 mi Calm Calm - N/A   Mostly Cloudy
6:36 AM 57.2 °F 46.4 °F 67% 29.78 in 10.0 mi East 5.8 mph - N/A   Scattered Clouds
6:56 AM 57.2 °F 46.4 °F 67% 29.78 in 10.0 mi Calm Calm - N/A   Clear
7:16 AM 57.2 °F 46.4 °F 67% 29.78 in 10.0 mi East 5.8 mph - N/A   Partly Cloudy
7:36 AM 59.0 °F 48.2 °F 67% 29.78 in 10.0 mi East 6.9 mph - N/A   Partly Cloudy
7:56 AM 60.8 °F 46.4 °F 59% 29.78 in 10.0 mi East 6.9 mph - N/A   Scattered Clouds
8:16 AM 60.8 °F 48.2 °F 63% 29.78 in 10.0 mi East 9.2 mph - N/A   Mostly Cloudy
8:36 AM 60.8 °F 48.2 °F 63% 29.78 in 10.0 mi ENE 5.8 mph - N/A   Mostly Cloudy
8:56 AM 60.8 °F 48.2 °F 63% 29.78 in 10.0 mi ENE 4.6 mph - N/A   Overcast
9:16 AM 60.8 °F 48.2 °F 63% 29.78 in 10.0 mi East 5.8 mph - N/A   Overcast
9:36 AM 60.8 °F 48.2 °F 63% 29.78 in 10.0 mi East 11.5 mph - N/A   Overcast
9:56 AM 60.8 °F 48.2 °F 63% 29.77 in 10.0 mi East 9.2 mph - N/A   Overcast
10:16 AM 60.8 °F 48.2 °F 63% 29.77 in 10.0 mi East 11.5 mph - N/A   Overcast
10:36 AM 62.6 °F 48.2 °F 59% 29.77 in 10.0 mi East 12.7 mph 17.3 mph N/A   Overcast
10:56 AM 62.6 °F 48.2 °F 59% 29.77 in 10.0 mi East 13.8 mph - N/A   Mostly Cloudy
11:16 AM 62.6 °F 48.2 °F 59% 29.76 in 10.0 mi East 12.7 mph 17.3 mph N/A   Mostly Cloudy
11:36 AM 62.6 °F 48.2 °F 59% 29.76 in 10.0 mi East 16.1 mph 23.0 mph N/A   Mostly Cloudy
11:56 AM 62.6 °F 48.2 °F 59% 29.76 in 10.0 mi East 9.2 mph 20.7 mph N/A   Overcast
12:16 PM 62.6 °F 48.2 °F 59% 29.76 in 10.0 mi East 13.8 mph 19.6 mph N/A   Overcast
12:36 PM 62.6 °F 48.2 °F 59% 29.75 in 10.0 mi East 12.7 mph - N/A   Overcast
12:56 PM 64.4 °F 48.2 °F 56% 29.75 in 10.0 mi East 11.5 mph 19.6 mph N/A   Mostly Cloudy
1:16 PM 64.4 °F 48.2 °F 56% 29.74 in 10.0 mi East 11.5 mph - N/A   Mostly Cloudy
1:36 PM 66.2 °F 48.2 °F 52% 29.74 in 10.0 mi East 15.0 mph 23.0 mph N/A   Overcast
1:56 PM 66.2 °F 46.4 °F 49% 29.74 in 10.0 mi East 19.6 mph - N/A   Overcast
2:16 PM 64.4 °F 46.4 °F 52% 29.74 in 10.0 mi East 18.4 mph 23.0 mph N/A   Overcast
2:36 PM 64.4 °F 46.4 °F 52% 29.74 in 10.0 mi East 13.8 mph 23.0 mph N/A   Mostly Cloudy
2:56 PM 64.4 °F 46.4 °F 52% 29.74 in 10.0 mi East 11.5 mph - N/A   Overcast
3:16 PM 64.4 °F 46.4 °F 52% 29.74 in 10.0 mi East 11.5 mph - N/A   Mostly Cloudy
3:36 PM 64.4 °F 46.4 °F 52% 29.73 in 10.0 mi East 12.7 mph - N/A   Overcast
3:56 PM 62.6 °F 48.2 °F 59% 29.74 in 10.0 mi East 10.4 mph - N/A   Overcast
4:16 PM 62.6 °F 48.2 °F 59% 29.74 in 10.0 mi East 9.2 mph - N/A   Overcast
4:36 PM 62.6 °F 48.2 °F 59% 29.74 in 10.0 mi East 10.4 mph - N/A   Overcast
4:56 PM 60.8 °F 51.8 °F 72% 29.74 in 10.0 mi East 8.1 mph - N/A   Overcast
5:16 PM 60.8 °F 51.8 °F 72% 29.74 in 10.0 mi East 5.8 mph - N/A   Overcast
5:36 PM 60.8 °F 51.8 °F 72% 29.74 in 10.0 mi East 6.9 mph - N/A   Overcast
5:56 PM 59.0 °F 51.8 °F 77% 29.74 in 10.0 mi East 8.1 mph - N/A   Overcast
6:16 PM 59.0 °F 51.8 °F 77% 29.73 in 10.0 mi ENE 6.9 mph - N/A   Overcast
6:36 PM 59.0 °F 51.8 °F 77% 29.73 in 10.0 mi East 6.9 mph - N/A   Overcast
6:56 PM 57.2 °F 50.0 °F 77% 29.73 in 10.0 mi East 11.5 mph - N/A   Overcast
7:16 PM 57.2 °F 50.0 °F 77% 29.73 in 10.0 mi East 4.6 mph - N/A   Overcast
7:36 PM 57.2 °F 51.8 °F 82% 29.73 in 10.0 mi NE 8.1 mph - N/A   Overcast
7:56 PM 57.2 °F 50.0 °F 77% 29.72 in 10.0 mi NE 5.8 mph - N/A   Overcast
8:16 PM 57.2 °F 51.8 °F 82% 29.72 in 10.0 mi ENE 4.6 mph - N/A   Overcast
8:36 PM 57.2 °F 51.8 °F 82% 29.72 in 10.0 mi NE 5.8 mph - N/A   Overcast
8:56 PM 57.2 °F 51.8 °F 82% 29.72 in 10.0 mi NE 4.6 mph - N/A   Overcast
9:16 PM 57.2 °F 51.8 °F 82% 29.71 in 10.0 mi NE 4.6 mph - N/A   Overcast
9:36 PM 55.4 °F 51.8 °F 88% 29.71 in 10.0 mi NE 6.9 mph - N/A   Overcast
9:56 PM 55.4 °F 51.8 °F 88% 29.71 in 10.0 mi ENE 6.9 mph - N/A   Overcast
10:16 PM 57.2 °F 50.0 °F 77% 29.71 in 10.0 mi ENE 4.6 mph - N/A   Overcast
10:36 PM 55.4 °F 50.0 °F 82% 29.70 in 10.0 mi Calm Calm - N/A   Overcast
10:56 PM 55.4 °F 48.2 °F 77% 29.70 in 10.0 mi East 3.5 mph - N/A   Overcast
11:16 PM 55.4 °F 48.2 °F 77% 29.70 in 10.0 mi ENE 5.8 mph - N/A   Overcast
11:36 PM 55.4 °F 48.2 °F 77% 29.70 in 10.0 mi East 5.8 mph - N/A   Overcast
11:56 PM 55.4 °F 48.2 °F 77% 29.70 in 10.0 mi ENE 4.6 mph - N/A   Overcast